TimeEST,TemperatureF,Dew PointF,Humidity,Sea Level PressureIn,VisibilityMPH,Wind Direction,Wind SpeedMPH,Gust SpeedMPH,PrecipitationIn,Events,Conditions,WindDirDegrees,DateUTC
12:14 AM,22.8,15.6,74,30.29,10.0,NNE,5.8,-,N/A,,Clear,20,2012-12-26 05:14:00
12:34 AM,22.8,15.1,72,30.28,10.0,North,6.9,-,N/A,,Clear,10,2012-12-26 05:34:00
12:54 AM,22.8,15.4,73,30.28,10.0,NNE,6.9,-,N/A,,Clear,20,2012-12-26 05:54:00
1:14 AM,23.0,15.4,73,30.28,10.0,NNE,8.1,-,N/A,,Clear,30,2012-12-26 06:14:00
1:34 AM,22.8,14.9,72,30.28,10.0,NNE,6.9,-,N/A,,Clear,20,2012-12-26 06:34:00
2:14 AM,23.0,14.9,71,30.27,10.0,NNE,8.1,-,N/A,,Mostly Cloudy,20,2012-12-26 07:14:00
2:34 AM,23.0,15.1,72,30.27,10.0,NNE,8.1,-,N/A,,Overcast,20,2012-12-26 07:34:00
2:55 AM,23.4,15.4,72,30.26,10.0,NNE,9.2,-,N/A,,Overcast,30,2012-12-26 07:55:00
3:14 AM,23.4,15.4,72,30.25,10.0,NNE,10.4,-,N/A,,Overcast,20,2012-12-26 08:14:00
3:34 AM,23.4,15.4,72,30.25,10.0,North,8.1,-,N/A,,Overcast,10,2012-12-26 08:34:00
4:14 AM,23.5,16.0,73,30.22,10.0,NNE,6.9,-,N/A,,Overcast,20,2012-12-26 09:14:00
4:35 AM,23.9,15.8,71,30.20,10.0,North,6.9,-,N/A,,Overcast,10,2012-12-26 09:35:00
4:54 AM,23.9,15.8,71,30.18,10.0,North,9.2,-,N/A,,Overcast,360,2012-12-26 09:54:00
5:14 AM,23.9,16.3,73,30.18,10.0,North,6.9,-,N/A,,Overcast,10,2012-12-26 10:14:00
5:34 AM,25.0,16.7,71,30.19,10.0,NNE,8.1,-,N/A,,Overcast,30,2012-12-26 10:34:00
5:54 AM,25.7,16.9,69,30.19,10.0,NNE,11.5,-,N/A,,Overcast,30,2012-12-26 10:54:00
6:14 AM,25.7,16.7,69,30.18,10.0,NNE,10.4,-,N/A,,Overcast,30,2012-12-26 11:14:00
6:34 AM,25.5,16.9,70,30.18,10.0,North,8.1,-,N/A,,Overcast,10,2012-12-26 11:34:00
6:55 AM,25.5,17.2,71,30.18,10.0,NNE,12.7,17.3,N/A,,Overcast,20,2012-12-26 11:55:00
7:14 AM,25.7,18.0,73,30.18,10.0,NNE,12.7,-,N/A,,Overcast,20,2012-12-26 12:14:00
7:34 AM,25.5,18.1,74,30.17,10.0,NNE,11.5,-,N/A,,Overcast,30,2012-12-26 12:34:00
7:54 AM,25.3,18.1,74,30.15,10.0,NNE,11.5,-,N/A,,Overcast,20,2012-12-26 12:54:00
8:14 AM,25.0,18.1,75,30.14,10.0,North,10.4,19.6,N/A,,Mostly Cloudy,10,2012-12-26 13:14:00
8:35 AM,25.3,18.3,75,30.14,10.0,North,11.5,-,N/A,,Mostly Cloudy,10,2012-12-26 13:35:00
8:54 AM,25.3,18.3,75,30.12,10.0,North,13.8,18.4,N/A,,Overcast,350,2012-12-26 13:54:00
9:14 AM,25.5,18.5,75,30.12,10.0,North,10.4,16.1,N/A,,Overcast,360,2012-12-26 14:14:00
9:34 AM,25.7,18.5,74,30.12,10.0,North,13.8,20.7,N/A,,Overcast,360,2012-12-26 14:34:00
9:54 AM,25.7,18.7,75,30.12,10.0,North,11.5,18.4,N/A,,Overcast,10,2012-12-26 14:54:00
10:14 AM,25.7,19.0,76,30.12,10.0,North,12.7,18.4,N/A,,Overcast,10,2012-12-26 15:14:00
10:34 AM,26.1,19.4,76,30.12,10.0,North,11.5,17.3,N/A,,Overcast,360,2012-12-26 15:34:00
10:54 AM,26.4,19.9,77,30.10,10.0,North,11.5,19.6,N/A,,Overcast,360,2012-12-26 15:54:00
11:14 AM,26.6,19.9,76,30.10,10.0,North,10.4,17.3,N/A,,Overcast,10,2012-12-26 16:14:00
11:34 AM,27.1,19.9,74,30.09,10.0,North,13.8,20.7,N/A,,Overcast,10,2012-12-26 16:34:00
11:54 AM,27.5,19.9,73,30.07,10.0,NNE,13.8,18.4,N/A,,Overcast,20,2012-12-26 16:54:00
12:15 PM,27.9,19.4,71,30.05,10.0,NNE,11.5,17.3,N/A,,Overcast,20,2012-12-26 17:15:00
12:34 PM,28.0,19.4,70,30.05,10.0,North,17.3,24.2,N/A,,Overcast,10,2012-12-26 17:34:00
12:54 PM,28.2,19.0,68,30.05,10.0,NNE,12.7,21.9,N/A,,Overcast,20,2012-12-26 17:54:00
1:14 PM,28.4,18.5,66,30.04,10.0,North,10.4,21.9,N/A,,Overcast,10,2012-12-26 18:14:00
1:34 PM,28.4,18.0,65,30.04,10.0,North,15.0,24.2,N/A,,Overcast,10,2012-12-26 18:34:00
1:54 PM,28.4,18.3,66,30.02,10.0,North,13.8,23.0,N/A,,Overcast,360,2012-12-26 18:54:00
2:14 PM,28.2,18.0,65,30.02,10.0,North,17.3,23.0,N/A,,Overcast,10,2012-12-26 19:14:00
2:34 PM,28.2,18.5,67,30.03,10.0,North,10.4,-,N/A,,Overcast,360,2012-12-26 19:34:00
2:55 PM,27.7,18.3,68,30.03,10.0,North,15.0,23.0,N/A,,Overcast,360,2012-12-26 19:55:00
3:14 PM,27.7,18.0,67,30.02,10.0,North,16.1,23.0,N/A,,Overcast,10,2012-12-26 20:14:00
3:34 PM,27.5,17.6,66,30.02,10.0,NNE,18.4,23.0,N/A,,Overcast,20,2012-12-26 20:34:00
3:54 PM,27.7,17.4,65,30.02,10.0,North,12.7,21.9,N/A,,Overcast,360,2012-12-26 20:54:00
4:14 PM,27.1,17.6,67,30.03,10.0,North,16.1,23.0,N/A,,Overcast,10,2012-12-26 21:14:00
4:34 PM,27.0,17.6,68,30.03,10.0,NNE,18.4,23.0,N/A,,Overcast,20,2012-12-26 21:34:00
4:54 PM,26.4,17.4,69,30.03,10.0,North,16.1,25.3,N/A,,Overcast,10,2012-12-26 21:54:00
5:14 PM,26.2,16.5,67,30.03,10.0,North,17.3,20.7,N/A,,Overcast,360,2012-12-26 22:14:00
5:34 PM,25.7,16.7,69,30.03,10.0,North,12.7,21.9,N/A,,Overcast,10,2012-12-26 22:34:00
5:54 PM,25.3,16.7,70,30.02,10.0,NNE,13.8,25.3,N/A,,Overcast,20,2012-12-26 22:54:00
6:14 PM,25.2,16.5,70,30.02,10.0,NNE,17.3,24.2,N/A,,Overcast,20,2012-12-26 23:14:00
6:34 PM,24.8,15.6,68,30.02,10.0,North,12.7,19.6,N/A,,Overcast,360,2012-12-26 23:34:00
6:54 PM,24.6,15.4,68,30.02,10.0,North,18.4,23.0,N/A,,Overcast,10,2012-12-26 23:54:00
7:15 PM,24.6,15.3,68,30.02,10.0,North,9.2,24.2,N/A,,Overcast,10,2012-12-27 00:15:00
7:34 PM,23.9,14.7,68,30.02,10.0,North,13.8,19.6,N/A,,Overcast,360,2012-12-27 00:34:00
7:54 PM,23.9,14.7,68,30.03,10.0,North,8.1,17.3,N/A,,Overcast,350,2012-12-27 00:54:00
8:14 PM,23.7,14.5,68,30.03,10.0,North,12.7,17.3,N/A,,Overcast,360,2012-12-27 01:14:00
8:34 PM,23.5,14.5,69,30.03,10.0,North,8.1,-,N/A,,Overcast,360,2012-12-27 01:34:00
8:54 PM,23.2,14.4,69,30.03,10.0,North,8.1,-,N/A,,Overcast,350,2012-12-27 01:54:00
9:14 PM,22.8,14.0,69,30.03,10.0,North,6.9,-,N/A,,Mostly Cloudy,350,2012-12-27 02:14:00
9:35 PM,22.3,14.4,72,30.04,10.0,North,6.9,-,N/A,,Scattered Clouds,350,2012-12-27 02:35:00
9:54 PM,22.1,14.4,72,30.04,10.0,North,6.9,-,N/A,,Mostly Cloudy,350,2012-12-27 02:54:00
10:14 PM,22.1,14.4,72,30.04,10.0,North,5.8,-,N/A,,Scattered Clouds,350,2012-12-27 03:14:00
10:34 PM,21.9,14.5,73,30.04,10.0,NNW,10.4,-,N/A,,Scattered Clouds,330,2012-12-27 03:34:00
10:54 PM,21.9,14.9,74,30.04,10.0,NNW,8.1,-,N/A,,Mostly Cloudy,330,2012-12-27 03:54:00
11:14 PM,21.7,15.4,77,30.04,10.0,NW,10.4,-,N/A,,Overcast,320,2012-12-27 04:14:00
11:34 PM,21.7,15.4,77,30.04,10.0,NW,10.4,-,N/A,,Overcast,320,2012-12-27 04:34:00
11:54 PM,21.7,15.6,77,30.04,10.0,NW,10.4,-,N/A,,Overcast,320,2012-12-27 04:54:00